Year,Month,Day,Hour,Minute,Value (Times are PST for temperature in C)
2019,05,01,00,00,12.20
2019,05,01,00,01,12.20
2019,05,01,00,02,12.10
2019,05,01,00,03,12.10
2019,05,01,00,04,12.10
2019,05,01,00,05,12.10
2019,05,01,00,06,12.10
2019,05,01,00,07,12.10
2019,05,01,00,08,12.00
2019,05,01,00,09,12.00
2019,05,01,00,10,12.00
2019,05,01,00,11,11.90
2019,05,01,00,12,11.90
2019,05,01,00,13,11.90
2019,05,01,00,14,11.90
2019,05,01,00,15,11.80
2019,05,01,00,16,11.80
2019,05,01,00,17,11.80
2019,05,01,00,18,11.80
2019,05,01,00,19,11.80
2019,05,01,00,20,11.80
2019,05,01,00,21,11.80
2019,05,01,00,22,11.80
2019,05,01,00,23,11.80
2019,05,01,00,24,11.80
2019,05,01,00,25,11.80
2019,05,01,00,26,11.80
2019,05,01,00,27,11.80
2019,05,01,00,28,11.90
2019,05,01,00,29,11.90
2019,05,01,00,30,11.90
2019,05,01,00,31,11.90
2019,05,01,00,32,11.90
2019,05,01,00,33,11.90
2019,05,01,00,34,11.90
2019,05,01,00,35,11.90
2019,05,01,00,36,11.90
2019,05,01,00,37,11.90
2019,05,01,00,38,11.90
2019,05,01,00,39,11.90
2019,05,01,00,40,11.90
2019,05,01,00,41,11.90
2019,05,01,00,42,11.80
2019,05,01,00,43,11.80
2019,05,01,00,44,11.80
2019,05,01,00,45,11.70
2019,05,01,00,46,11.70
2019,05,01,00,47,11.70
2019,05,01,00,48,11.70
2019,05,01,00,49,11.60
2019,05,01,00,50,11.60
2019,05,01,00,51,11.60
2019,05,01,00,52,11.60
2019,05,01,00,53,11.50
2019,05,01,00,54,11.50
2019,05,01,00,55,11.50
2019,05,01,00,56,11.50
2019,05,01,00,57,11.50
2019,05,01,00,58,11.40
2019,05,01,00,59,11.40
2019,05,01,01,00,11.40
2019,05,01,01,01,11.40
2019,05,01,01,02,11.40
2019,05,01,01,03,11.40
2019,05,01,01,04,11.40
2019,05,01,01,05,11.40
2019,05,01,01,06,11.40
2019,05,01,01,07,11.40
2019,05,01,01,08,11.30
2019,05,01,01,09,11.30
2019,05,01,01,10,11.30
2019,05,01,01,11,11.20
2019,05,01,01,12,11.20
2019,05,01,01,13,11.10
2019,05,01,01,14,11.00
2019,05,01,01,15,11.00
2019,05,01,01,16,11.00
2019,05,01,01,17,10.90
2019,05,01,01,18,10.90
2019,05,01,01,19,10.90
2019,05,01,01,20,10.90
2019,05,01,01,21,10.90
2019,05,01,01,22,10.90
2019,05,01,01,23,10.90
2019,05,01,01,24,10.90
2019,05,01,01,25,10.90
2019,05,01,01,26,10.90
2019,05,01,01,27,10.80
2019,05,01,01,28,10.80
2019,05,01,01,29,10.80
2019,05,01,01,30,10.80
2019,05,01,01,31,10.70
2019,05,01,01,32,10.70
2019,05,01,01,33,10.70
2019,05,01,01,34,10.60
2019,05,01,01,35,10.60
2019,05,01,01,36,10.60
2019,05,01,01,37,10.60
2019,05,01,01,38,10.60
2019,05,01,01,39,10.60
2019,05,01,01,40,10.60
2019,05,01,01,41,10.70
2019,05,01,01,42,10.70
2019,05,01,01,43,10.70
2019,05,01,01,44,10.70
2019,05,01,01,45,10.70
2019,05,01,01,46,10.70
2019,05,01,01,47,10.70
2019,05,01,01,48,10.70
2019,05,01,01,49,10.70
2019,05,01,01,50,10.70
2019,05,01,01,51,10.70
2019,05,01,01,52,10.70
2019,05,01,01,53,10.70
2019,05,01,01,54,10.70
2019,05,01,01,55,10.70
2019,05,01,01,56,10.70
2019,05,01,01,57,10.70
2019,05,01,01,58,10.70
2019,05,01,01,59,10.70
2019,05,01,02,00,10.60
2019,05,01,02,01,10.60
2019,05,01,02,02,10.60
2019,05,01,02,03,10.60
2019,05,01,02,04,10.60
2019,05,01,02,05,10.50
2019,05,01,02,06,10.50
2019,05,01,02,07,10.40
2019,05,01,02,08,10.40
2019,05,01,02,09,10.30
2019,05,01,02,10,10.20
2019,05,01,02,11,10.20
2019,05,01,02,12,10.10
2019,05,01,02,13,10.10
2019,05,01,02,14,10.00
2019,05,01,02,15,10.00
2019,05,01,02,16,9.90
2019,05,01,02,17,9.90
2019,05,01,02,18,9.90
2019,05,01,02,19,10.00
2019,05,01,02,20,10.00
2019,05,01,02,21,9.90
2019,05,01,02,22,9.90
2019,05,01,02,23,9.90
2019,05,01,02,24,9.90
2019,05,01,02,25,9.80
2019,05,01,02,26,9.80
2019,05,01,02,27,9.80
2019,05,01,02,28,9.80
2019,05,01,02,29,9.80
2019,05,01,02,30,9.80
2019,05,01,02,31,9.80
2019,05,01,02,32,9.80
2019,05,01,02,33,9.80
2019,05,01,02,34,9.80
2019,05,01,02,35,9.80
2019,05,01,02,36,9.90
2019,05,01,02,37,9.90
2019,05,01,02,38,9.90
2019,05,01,02,39,9.90
2019,05,01,02,40,9.90
2019,05,01,02,41,9.90
2019,05,01,02,42,9.90
2019,05,01,02,43,9.80
2019,05,01,02,44,9.80
2019,05,01,02,45,9.80
2019,05,01,02,46,9.80
2019,05,01,02,47,9.80
2019,05,01,02,48,9.80
2019,05,01,02,49,9.80
2019,05,01,02,50,9.70
2019,05,01,02,51,9.70
2019,05,01,02,52,9.70
2019,05,01,02,53,9.70
2019,05,01,02,54,9.70
2019,05,01,02,55,9.70
2019,05,01,02,56,9.70
2019,05,01,02,57,9.60
2019,05,01,02,58,9.60
2019,05,01,02,59,9.60
2019,05,01,03,00,9.60
2019,05,01,03,01,9.60
2019,05,01,03,02,9.60
2019,05,01,03,03,9.60
2019,05,01,03,04,9.60
2019,05,01,03,05,9.60
2019,05,01,03,06,9.60
2019,05,01,03,07,9.60
2019,05,01,03,08,9.60
2019,05,01,03,09,9.60
2019,05,01,03,10,9.60
2019,05,01,03,11,9.60
2019,05,01,03,12,9.60
2019,05,01,03,13,9.60
2019,05,01,03,14,9.60
2019,05,01,03,15,9.60
2019,05,01,03,16,9.60
2019,05,01,03,17,9.70
2019,05,01,03,18,9.70
2019,05,01,03,19,9.70
2019,05,01,03,20,9.70
2019,05,01,03,21,9.70
2019,05,01,03,22,9.70
2019,05,01,03,23,9.70
2019,05,01,03,24,9.70
2019,05,01,03,25,9.70
2019,05,01,03,26,9.70
2019,05,01,03,27,9.70
2019,05,01,03,28,9.60
2019,05,01,03,29,9.60
2019,05,01,03,30,9.60
2019,05,01,03,31,9.50
2019,05,01,03,32,9.50
2019,05,01,03,33,9.50
2019,05,01,03,34,9.50
2019,05,01,03,35,9.40
2019,05,01,03,36,9.40
2019,05,01,03,37,9.40
2019,05,01,03,38,9.40
2019,05,01,03,39,9.40
2019,05,01,03,40,9.40
2019,05,01,03,41,9.40
2019,05,01,03,42,9.40
2019,05,01,03,43,9.40
2019,05,01,03,44,9.40
2019,05,01,03,45,9.40
2019,05,01,03,46,9.40
2019,05,01,03,47,9.40
2019,05,01,03,48,9.40
2019,05,01,03,49,9.40
2019,05,01,03,50,9.40
2019,05,01,03,51,9.30
2019,05,01,03,52,9.30
2019,05,01,03,53,9.30
2019,05,01,03,54,9.30
2019,05,01,03,55,9.30
2019,05,01,03,56,9.30
2019,05,01,03,57,9.30
2019,05,01,03,58,9.30
2019,05,01,03,59,9.20
2019,05,01,04,00,9.20
2019,05,01,04,01,9.20
2019,05,01,04,02,9.30
2019,05,01,04,03,9.20
2019,05,01,04,04,9.20
2019,05,01,04,05,9.30
2019,05,01,04,06,9.30
2019,05,01,04,07,9.30
2019,05,01,04,08,9.20
2019,05,01,04,09,9.20
2019,05,01,04,10,9.20
2019,05,01,04,11,9.20
2019,05,01,04,12,9.20
2019,05,01,04,13,9.20
2019,05,01,04,14,9.20
2019,05,01,04,15,9.20
2019,05,01,04,16,9.20
2019,05,01,04,17,9.20
2019,05,01,04,18,9.20
2019,05,01,04,19,9.20
2019,05,01,04,20,9.20
2019,05,01,04,21,9.20
2019,05,01,04,22,9.20
2019,05,01,04,23,9.20
2019,05,01,04,24,9.20
2019,05,01,04,25,9.20
2019,05,01,04,26,9.20
2019,05,01,04,27,9.20
2019,05,01,04,28,9.10
2019,05,01,04,29,9.10
2019,05,01,04,30,9.10
2019,05,01,04,31,9.10
2019,05,01,04,32,9.00
2019,05,01,04,33,9.00
2019,05,01,04,34,9.00
2019,05,01,04,35,8.90
2019,05,01,04,36,8.90
2019,05,01,04,37,8.90
2019,05,01,04,38,8.90
2019,05,01,04,39,8.90
2019,05,01,04,40,8.90
2019,05,01,04,41,8.90
2019,05,01,04,42,8.90
2019,05,01,04,43,8.90
2019,05,01,04,44,8.90
2019,05,01,04,45,8.90
2019,05,01,04,46,8.90
2019,05,01,04,47,8.90
2019,05,01,04,48,8.90
2019,05,01,04,49,8.90
2019,05,01,04,50,8.90
2019,05,01,04,51,8.90
2019,05,01,04,52,8.90
2019,05,01,04,53,8.90
2019,05,01,04,54,8.90
2019,05,01,04,55,8.90
2019,05,01,04,56,8.90
2019,05,01,04,57,8.80
2019,05,01,04,58,8.80
2019,05,01,04,59,8.80
2019,05,01,05,00,8.80
2019,05,01,05,01,8.80
2019,05,01,05,02,8.80
2019,05,01,05,03,8.70
2019,05,01,05,04,8.70
2019,05,01,05,05,8.70
2019,05,01,05,06,8.70
2019,05,01,05,07,8.60
2019,05,01,05,08,8.60
2019,05,01,05,09,8.60
2019,05,01,05,10,8.60
2019,05,01,05,11,8.60
2019,05,01,05,12,8.50
2019,05,01,05,13,8.50
2019,05,01,05,14,8.50
2019,05,01,05,15,8.50
2019,05,01,05,16,8.40
2019,05,01,05,17,8.40
2019,05,01,05,18,8.40
2019,05,01,05,19,8.40
2019,05,01,05,20,8.40
2019,05,01,05,21,8.40
2019,05,01,05,22,8.40
2019,05,01,05,23,8.30
2019,05,01,05,24,8.30
2019,05,01,05,25,8.30
2019,05,01,05,26,8.30
2019,05,01,05,27,8.30
2019,05,01,05,28,8.30
2019,05,01,05,29,8.20
2019,05,01,05,30,8.20
2019,05,01,05,31,8.20
2019,05,01,05,32,8.20
2019,05,01,05,33,8.10
2019,05,01,05,34,8.20
2019,05,01,05,35,8.20
2019,05,01,05,36,8.20
2019,05,01,05,37,8.20
2019,05,01,05,38,8.20
2019,05,01,05,39,8.20
2019,05,01,05,40,8.20
2019,05,01,05,41,8.20
2019,05,01,05,42,8.20
2019,05,01,05,43,8.20
2019,05,01,05,44,8.20
2019,05,01,05,45,8.20
2019,05,01,05,46,8.20
2019,05,01,05,47,8.20
2019,05,01,05,48,8.20
2019,05,01,05,49,8.20
2019,05,01,05,50,8.20
2019,05,01,05,51,8.10
2019,05,01,05,52,8.10
2019,05,01,05,53,8.10
2019,05,01,05,54,8.10
2019,05,01,05,55,8.00
2019,05,01,05,56,8.00
2019,05,01,05,57,7.90
2019,05,01,05,58,7.90
2019,05,01,05,59,7.90
2019,05,01,06,00,7.80
2019,05,01,06,01,7.80
2019,05,01,06,02,7.80
2019,05,01,06,03,7.70
2019,05,01,06,04,7.70
2019,05,01,06,05,7.70
2019,05,01,06,06,7.70
2019,05,01,06,07,7.70
2019,05,01,06,08,7.60
2019,05,01,06,09,7.60
2019,05,01,06,10,7.60
2019,05,01,06,11,7.60
2019,05,01,06,12,7.60
2019,05,01,06,13,7.60
2019,05,01,06,14,7.60
2019,05,01,06,15,7.60
2019,05,01,06,16,7.60
2019,05,01,06,17,7.60
2019,05,01,06,18,7.60
2019,05,01,06,19,7.60
2019,05,01,06,20,7.60
2019,05,01,06,21,7.70
2019,05,01,06,22,7.70
2019,05,01,06,23,7.80
2019,05,01,06,24,7.80
2019,05,01,06,25,7.80
2019,05,01,06,26,7.90
2019,05,01,06,27,7.90
2019,05,01,06,28,7.90
2019,05,01,06,29,7.90
2019,05,01,06,30,8.00
2019,05,01,06,31,8.10
2019,05,01,06,32,8.10
2019,05,01,06,33,8.10
2019,05,01,06,34,8.10
2019,05,01,06,35,8.20
2019,05,01,06,36,8.20
2019,05,01,06,37,8.20
2019,05,01,06,38,8.30
2019,05,01,06,39,8.30
2019,05,01,06,40,8.30
2019,05,01,06,41,8.30
2019,05,01,06,42,8.30
2019,05,01,06,43,8.40
2019,05,01,06,44,8.40
2019,05,01,06,45,8.40
2019,05,01,06,46,8.40
2019,05,01,06,47,8.40
2019,05,01,06,48,8.40
2019,05,01,06,49,8.40
2019,05,01,06,50,8.50
2019,05,01,06,51,8.50
2019,05,01,06,52,8.50
2019,05,01,06,53,8.50
2019,05,01,06,54,8.60
2019,05,01,06,55,8.60
2019,05,01,06,56,8.60
2019,05,01,06,57,8.60
2019,05,01,06,58,8.60
2019,05,01,06,59,8.60
2019,05,01,07,00,8.60
2019,05,01,07,01,8.70
2019,05,01,07,02,8.70
2019,05,01,07,03,8.70
2019,05,01,07,04,8.70
2019,05,01,07,05,8.70
2019,05,01,07,06,8.70
2019,05,01,07,07,8.70
2019,05,01,07,08,8.70
2019,05,01,07,09,8.70
2019,05,01,07,10,8.70
2019,05,01,07,11,8.70
2019,05,01,07,12,8.70
2019,05,01,07,13,8.70
2019,05,01,07,14,8.70
2019,05,01,07,15,8.70
2019,05,01,07,16,8.70
2019,05,01,07,17,8.70
2019,05,01,07,18,8.70
2019,05,01,07,19,8.70
2019,05,01,07,20,8.70
2019,05,01,07,21,8.70
2019,05,01,07,22,8.70
2019,05,01,07,23,8.70
2019,05,01,07,24,8.70
2019,05,01,07,25,8.70
2019,05,01,07,26,8.70
2019,05,01,07,27,8.70
2019,05,01,07,28,8.70
2019,05,01,07,29,8.70
2019,05,01,07,30,8.70
2019,05,01,07,31,8.70
2019,05,01,07,32,8.70
2019,05,01,07,33,8.80
2019,05,01,07,34,8.80
2019,05,01,07,35,8.80
2019,05,01,07,36,8.80
2019,05,01,07,37,8.80
2019,05,01,07,38,8.80
2019,05,01,07,39,8.80
2019,05,01,07,40,8.80
2019,05,01,07,41,8.80
2019,05,01,07,42,8.80
2019,05,01,07,43,8.80
2019,05,01,07,44,8.80
2019,05,01,07,45,8.80
2019,05,01,07,46,8.80
2019,05,01,07,47,8.80
2019,05,01,07,48,8.80
2019,05,01,07,49,8.80
2019,05,01,07,50,8.80
2019,05,01,07,51,8.80
2019,05,01,07,52,8.70
2019,05,01,07,53,8.80
2019,05,01,07,54,8.80
2019,05,01,07,55,8.80
2019,05,01,07,56,8.80
2019,05,01,07,57,8.80
2019,05,01,07,58,8.80
2019,05,01,07,59,8.80
2019,05,01,08,00,8.80
2019,05,01,08,01,8.80
2019,05,01,08,02,8.80
2019,05,01,08,03,8.80
2019,05,01,08,04,8.80
2019,05,01,08,05,8.70
2019,05,01,08,06,8.70
2019,05,01,08,07,8.70
2019,05,01,08,08,8.70
2019,05,01,08,09,8.70
2019,05,01,08,10,8.60
2019,05,01,08,11,8.60
2019,05,01,08,12,8.60
2019,05,01,08,13,8.60
2019,05,01,08,14,8.60
2019,05,01,08,15,8.60
2019,05,01,08,16,8.60
2019,05,01,08,17,8.60
2019,05,01,08,18,8.50
2019,05,01,08,19,8.50
2019,05,01,08,20,8.50
2019,05,01,08,21,8.50
2019,05,01,08,22,8.50
2019,05,01,08,23,8.60
2019,05,01,08,24,8.60
2019,05,01,08,25,8.60
2019,05,01,08,26,8.60
2019,05,01,08,27,8.60
2019,05,01,08,28,8.60
2019,05,01,08,29,8.60
2019,05,01,08,30,8.70
2019,05,01,08,31,8.70
2019,05,01,08,32,8.70
2019,05,01,08,33,8.70
2019,05,01,08,34,8.70
2019,05,01,08,35,8.70
2019,05,01,08,36,8.80
2019,05,01,08,37,8.80
2019,05,01,08,38,8.80
2019,05,01,08,39,8.80
2019,05,01,08,40,8.80
2019,05,01,08,41,8.80
2019,05,01,08,42,8.90
2019,05,01,08,43,8.90
2019,05,01,08,44,8.90
2019,05,01,08,45,8.90
2019,05,01,08,46,8.90
2019,05,01,08,47,8.90
2019,05,01,08,48,9.00
2019,05,01,08,49,9.00
2019,05,01,08,50,9.00
2019,05,01,08,51,9.00
2019,05,01,08,52,9.10
2019,05,01,08,53,9.10
2019,05,01,08,54,9.10
2019,05,01,08,55,9.10
2019,05,01,08,56,9.10
2019,05,01,08,57,9.10
2019,05,01,08,58,9.10
2019,05,01,08,59,9.20
2019,05,01,09,00,9.20
2019,05,01,09,01,9.20
2019,05,01,09,02,9.20
2019,05,01,09,03,9.20
2019,05,01,09,04,9.20
2019,05,01,09,05,9.20
2019,05,01,09,06,9.20
2019,05,01,09,07,9.20
2019,05,01,09,08,9.30
2019,05,01,09,09,9.30
2019,05,01,09,10,9.30
2019,05,01,09,11,9.30
2019,05,01,09,12,9.30
2019,05,01,09,13,9.30
2019,05,01,09,14,9.30
2019,05,01,09,15,9.30
2019,05,01,09,16,9.30
2019,05,01,09,17,9.40
2019,05,01,09,18,9.40
2019,05,01,09,19,9.40
2019,05,01,09,20,9.40
2019,05,01,09,21,9.50
2019,05,01,09,22,9.50
2019,05,01,09,23,9.60
2019,05,01,09,24,9.60
2019,05,01,09,25,9.60
2019,05,01,09,26,9.60
2019,05,01,09,27,9.60
2019,05,01,09,28,9.60
2019,05,01,09,29,9.60
2019,05,01,09,30,9.60
2019,05,01,09,31,9.60
2019,05,01,09,32,9.60
2019,05,01,09,33,9.60
2019,05,01,09,34,9.60
2019,05,01,09,35,9.60
2019,05,01,09,36,9.60
2019,05,01,09,37,9.70
2019,05,01,09,38,9.70
2019,05,01,09,39,9.70
2019,05,01,09,40,9.70
2019,05,01,09,41,9.70
2019,05,01,09,42,9.70
2019,05,01,09,43,9.70
2019,05,01,09,44,9.70
2019,05,01,09,45,9.70
2019,05,01,09,46,9.70
2019,05,01,09,47,9.70
2019,05,01,09,48,9.70
2019,05,01,09,49,9.70
2019,05,01,09,50,9.70
2019,05,01,09,51,9.70
2019,05,01,09,52,9.70
2019,05,01,09,53,9.70
2019,05,01,09,54,9.70
2019,05,01,09,55,9.80
2019,05,01,09,56,9.80
2019,05,01,09,57,9.80
2019,05,01,09,58,9.80
2019,05,01,09,59,9.80
2019,05,01,10,00,9.80
2019,05,01,10,01,9.80
2019,05,01,10,02,9.80
2019,05,01,10,03,9.90
2019,05,01,10,04,9.90
2019,05,01,10,05,9.90
2019,05,01,10,06,10.00
2019,05,01,10,07,10.00
2019,05,01,10,08,10.10
2019,05,01,10,09,10.10
2019,05,01,10,10,10.10
2019,05,01,10,11,10.20
2019,05,01,10,12,10.20
2019,05,01,10,13,10.30
2019,05,01,10,14,10.40
2019,05,01,10,15,10.50
2019,05,01,10,16,10.60
2019,05,01,10,17,10.70
2019,05,01,10,18,10.70
2019,05,01,10,19,10.70
2019,05,01,10,20,10.80
2019,05,01,10,21,10.80
2019,05,01,10,22,10.80
2019,05,01,10,23,10.80
2019,05,01,10,24,10.90
2019,05,01,10,25,10.90
2019,05,01,10,26,10.90
2019,05,01,10,27,10.90
2019,05,01,10,28,10.90
2019,05,01,10,29,10.90
2019,05,01,10,30,10.90
2019,05,01,10,31,10.90
2019,05,01,10,32,10.90
2019,05,01,10,33,10.90
2019,05,01,10,34,10.90
2019,05,01,10,35,10.90
2019,05,01,10,36,10.90
2019,05,01,10,37,10.90
2019,05,01,10,38,10.90
2019,05,01,10,39,10.90
2019,05,01,10,40,10.90
2019,05,01,10,41,10.80
2019,05,01,10,42,10.80
2019,05,01,10,43,10.80
2019,05,01,10,44,10.80
2019,05,01,10,45,10.80
2019,05,01,10,46,10.80
2019,05,01,10,47,10.80
2019,05,01,10,48,10.80
2019,05,01,10,49,10.80
2019,05,01,10,50,10.80
2019,05,01,10,51,10.80
2019,05,01,10,52,10.80
2019,05,01,10,53,10.80
2019,05,01,10,54,10.80
2019,05,01,10,55,10.80
2019,05,01,10,56,10.80
2019,05,01,10,57,10.80
2019,05,01,10,58,10.80
2019,05,01,10,59,10.80
2019,05,01,11,00,10.80
2019,05,01,11,01,10.90
2019,05,01,11,02,10.90
2019,05,01,11,03,10.90
2019,05,01,11,04,10.90
2019,05,01,11,05,11.00
2019,05,01,11,06,11.00
2019,05,01,11,07,11.00
2019,05,01,11,08,11.10
2019,05,01,11,09,11.10
2019,05,01,11,10,11.10
2019,05,01,11,11,11.10
2019,05,01,11,12,11.20
2019,05,01,11,13,11.20
2019,05,01,11,14,11.20
2019,05,01,11,15,11.20
2019,05,01,11,16,11.20
2019,05,01,11,17,11.20
2019,05,01,11,18,11.20
2019,05,01,11,19,11.30
2019,05,01,11,20,11.30
2019,05,01,11,21,11.30
2019,05,01,11,22,11.30
2019,05,01,11,23,11.30
2019,05,01,11,24,11.30
2019,05,01,11,25,11.30
2019,05,01,11,26,11.30
2019,05,01,11,27,11.30
2019,05,01,11,28,11.40
2019,05,01,11,29,11.40
2019,05,01,11,30,11.40
2019,05,01,11,31,11.40
2019,05,01,11,32,11.40
2019,05,01,11,33,11.40
2019,05,01,11,34,11.30
2019,05,01,11,35,11.30
2019,05,01,11,36,11.30
2019,05,01,11,37,11.30
2019,05,01,11,38,11.20
2019,05,01,11,39,11.20
2019,05,01,11,40,11.20
2019,05,01,11,41,11.30
2019,05,01,11,42,11.30
2019,05,01,11,43,11.30
2019,05,01,11,44,11.30
2019,05,01,11,45,11.30
2019,05,01,11,46,11.40
2019,05,01,11,47,11.40
2019,05,01,11,48,11.40
2019,05,01,11,49,11.40
2019,05,01,11,50,11.50
2019,05,01,11,51,11.50
2019,05,01,11,52,11.50
2019,05,01,11,53,11.50
2019,05,01,11,54,11.50
2019,05,01,11,55,11.50
2019,05,01,11,56,11.50
2019,05,01,11,57,11.50
2019,05,01,11,58,11.50
2019,05,01,11,59,11.50
2019,05,01,12,00,11.50
2019,05,01,12,01,11.50
2019,05,01,12,02,11.50
2019,05,01,12,03,11.50
2019,05,01,12,04,11.50
2019,05,01,12,05,11.60
2019,05,01,12,06,11.50
2019,05,01,12,07,11.60
2019,05,01,12,08,11.60
2019,05,01,12,09,11.60
2019,05,01,12,10,11.60
2019,05,01,12,11,11.60
2019,05,01,12,12,11.60
2019,05,01,12,13,11.60
2019,05,01,12,14,11.60
2019,05,01,12,15,11.60
2019,05,01,12,16,11.60
2019,05,01,12,17,11.70
2019,05,01,12,18,11.70
2019,05,01,12,19,11.70
2019,05,01,12,20,11.70
2019,05,01,12,21,11.70
2019,05,01,12,22,11.70
2019,05,01,12,23,11.70
2019,05,01,12,24,11.70
2019,05,01,12,25,11.70
2019,05,01,12,26,11.70
2019,05,01,12,27,11.70
2019,05,01,12,28,11.80
2019,05,01,12,29,11.80
2019,05,01,12,30,11.90
2019,05,01,12,31,11.90
2019,05,01,12,32,12.00
2019,05,01,12,33,12.00
2019,05,01,12,34,12.10
2019,05,01,12,35,12.30
2019,05,01,12,36,12.40
2019,05,01,12,37,12.50
2019,05,01,12,38,12.50
2019,05,01,12,39,12.50
2019,05,01,12,40,12.50
2019,05,01,12,41,12.50
2019,05,01,12,42,12.60
2019,05,01,12,43,12.60
2019,05,01,12,44,12.70
2019,05,01,12,45,12.80
2019,05,01,12,46,12.90
2019,05,01,12,47,13.00
2019,05,01,12,48,13.10
2019,05,01,12,49,13.20
2019,05,01,12,50,13.30
2019,05,01,12,51,13.40
2019,05,01,12,52,13.50
2019,05,01,12,53,13.60
2019,05,01,12,54,13.70
2019,05,01,12,55,13.70
2019,05,01,12,56,13.80
2019,05,01,12,57,13.90
2019,05,01,12,58,13.90
2019,05,01,12,59,13.90
2019,05,01,13,00,14.00
2019,05,01,13,01,14.00
2019,05,01,13,02,13.90
2019,05,01,13,03,13.90
2019,05,01,13,04,13.90
2019,05,01,13,05,14.00
2019,05,01,13,06,14.00
2019,05,01,13,07,14.10
2019,05,01,13,08,14.10
2019,05,01,13,09,14.20
2019,05,01,13,10,14.20
2019,05,01,13,11,14.20
2019,05,01,13,12,14.30
2019,05,01,13,13,14.30
2019,05,01,13,14,14.40
2019,05,01,13,15,14.50
2019,05,01,13,16,14.50
2019,05,01,13,17,14.60
2019,05,01,13,18,14.60
2019,05,01,13,19,14.70
2019,05,01,13,20,14.70
2019,05,01,13,21,14.70
2019,05,01,13,22,14.70
2019,05,01,13,23,14.70
2019,05,01,13,24,14.60
2019,05,01,13,25,14.70
2019,05,01,13,26,14.70
2019,05,01,13,27,14.70
2019,05,01,13,28,14.70
2019,05,01,13,29,14.70
2019,05,01,13,30,14.70
2019,05,01,13,31,14.70
2019,05,01,13,32,14.70
2019,05,01,13,33,14.70
2019,05,01,13,34,14.70
2019,05,01,13,35,14.70
2019,05,01,13,36,14.70
2019,05,01,13,37,14.80
2019,05,01,13,38,14.90
2019,05,01,13,39,15.00
2019,05,01,13,40,15.00
2019,05,01,13,41,15.10
2019,05,01,13,42,15.10
2019,05,01,13,43,15.20
2019,05,01,13,44,15.30
2019,05,01,13,45,15.30
2019,05,01,13,46,15.30
2019,05,01,13,47,15.30
2019,05,01,13,48,15.30
2019,05,01,13,49,15.30
2019,05,01,13,50,15.20
2019,05,01,13,51,15.20
2019,05,01,13,52,15.30
2019,05,01,13,53,15.30
2019,05,01,13,54,15.30
2019,05,01,13,55,15.30
2019,05,01,13,56,15.40
2019,05,01,13,57,15.40
2019,05,01,13,58,15.40
2019,05,01,13,59,15.40
2019,05,01,14,00,15.40
2019,05,01,14,01,15.40
2019,05,01,14,02,15.40
2019,05,01,14,03,15.50
2019,05,01,14,04,15.50
2019,05,01,14,05,15.50
2019,05,01,14,06,15.50
2019,05,01,14,07,15.40
2019,05,01,14,08,15.40
2019,05,01,14,09,15.30
2019,05,01,14,10,15.30
2019,05,01,14,11,15.30
2019,05,01,14,12,15.40
2019,05,01,14,13,15.40
2019,05,01,14,14,15.50
2019,05,01,14,15,15.50
2019,05,01,14,16,15.50
2019,05,01,14,17,15.50
2019,05,01,14,18,15.50
2019,05,01,14,19,15.50
2019,05,01,14,20,15.50
2019,05,01,14,21,15.60
2019,05,01,14,22,15.60
2019,05,01,14,23,15.60
2019,05,01,14,24,15.60
2019,05,01,14,25,15.60
2019,05,01,14,26,15.70
2019,05,01,14,27,15.70
2019,05,01,14,28,15.70
2019,05,01,14,29,15.60
2019,05,01,14,30,15.40
2019,05,01,14,31,15.40
2019,05,01,14,32,15.50
2019,05,01,14,33,15.60
2019,05,01,14,34,15.60
2019,05,01,14,35,15.70
2019,05,01,14,36,15.70
2019,05,01,14,37,15.80
2019,05,01,14,38,15.90
2019,05,01,14,39,15.90
2019,05,01,14,40,16.00
2019,05,01,14,41,16.00
2019,05,01,14,42,16.00
2019,05,01,14,43,15.90
2019,05,01,14,44,15.80
2019,05,01,14,45,15.80
2019,05,01,14,46,15.80
2019,05,01,14,47,15.90
2019,05,01,14,48,15.90
2019,05,01,14,49,15.90
2019,05,01,14,50,15.90
2019,05,01,14,51,15.90
2019,05,01,14,52,15.90
2019,05,01,14,53,16.00
2019,05,01,14,54,16.00
2019,05,01,14,55,16.10
2019,05,01,14,56,16.00
2019,05,01,14,57,16.00
2019,05,01,14,58,16.00
2019,05,01,14,59,16.10
2019,05,01,15,00,16.10
2019,05,01,15,01,16.10
2019,05,01,15,02,16.10
2019,05,01,15,03,16.10
2019,05,01,15,04,16.10
2019,05,01,15,05,16.20
2019,05,01,15,06,16.20
2019,05,01,15,07,16.20
2019,05,01,15,08,16.20
2019,05,01,15,09,16.20
2019,05,01,15,10,16.10
2019,05,01,15,11,16.10
2019,05,01,15,12,16.10
2019,05,01,15,13,16.10
2019,05,01,15,14,16.20
2019,05,01,15,15,16.20
2019,05,01,15,16,16.30
2019,05,01,15,17,16.30
2019,05,01,15,18,16.30
2019,05,01,15,19,16.30
2019,05,01,15,20,16.40
2019,05,01,15,21,16.40
2019,05,01,15,22,16.40
2019,05,01,15,23,16.40
2019,05,01,15,24,16.40
2019,05,01,15,25,16.40
2019,05,01,15,26,16.40
2019,05,01,15,27,16.40
2019,05,01,15,28,16.50
2019,05,01,15,29,16.40
2019,05,01,15,30,16.50
2019,05,01,15,31,16.60
2019,05,01,15,32,16.70
2019,05,01,15,33,16.80
2019,05,01,15,34,16.80
2019,05,01,15,35,17.00
2019,05,01,15,36,17.00
2019,05,01,15,37,17.10
2019,05,01,15,38,17.00
2019,05,01,15,39,17.00
2019,05,01,15,40,17.00
2019,05,01,15,41,17.10
2019,05,01,15,42,17.20
2019,05,01,15,43,17.20
2019,05,01,15,44,17.20
2019,05,01,15,45,17.00
2019,05,01,15,46,16.90
2019,05,01,15,47,16.80
2019,05,01,15,48,16.60
2019,05,01,15,49,16.60
2019,05,01,15,50,16.50
2019,05,01,15,51,16.50
2019,05,01,15,52,16.50
2019,05,01,15,53,16.50
2019,05,01,15,54,16.50
2019,05,01,15,55,16.40
2019,05,01,15,56,16.40
2019,05,01,15,57,16.40
2019,05,01,15,58,16.30
2019,05,01,15,59,16.30
2019,05,01,16,00,16.30
2019,05,01,16,01,16.20
2019,05,01,16,02,16.20
2019,05,01,16,03,16.20
2019,05,01,16,04,16.20
2019,05,01,16,05,16.30
2019,05,01,16,06,16.30
2019,05,01,16,07,16.30
2019,05,01,16,08,16.30
2019,05,01,16,09,16.30
2019,05,01,16,10,16.40
2019,05,01,16,11,16.30
2019,05,01,16,12,16.30
2019,05,01,16,13,16.30
2019,05,01,16,14,16.40
2019,05,01,16,15,16.40
2019,05,01,16,16,16.40
2019,05,01,16,17,16.40
2019,05,01,16,18,16.50
2019,05,01,16,19,16.50
2019,05,01,16,20,16.50
2019,05,01,16,21,16.50
2019,05,01,16,22,16.50
2019,05,01,16,23,16.50
2019,05,01,16,24,16.50
2019,05,01,16,25,16.50
2019,05,01,16,26,16.50
2019,05,01,16,27,16.50
2019,05,01,16,28,16.40
2019,05,01,16,29,16.30
2019,05,01,16,30,16.30
2019,05,01,16,31,16.30
2019,05,01,16,32,16.30
2019,05,01,16,33,16.40
2019,05,01,16,34,16.40
2019,05,01,16,35,16.40
2019,05,01,16,36,16.30
2019,05,01,16,37,16.20
2019,05,01,16,38,16.10
2019,05,01,16,39,16.10
2019,05,01,16,40,16.10
2019,05,01,16,41,16.10
2019,05,01,16,42,16.00
2019,05,01,16,43,16.10
2019,05,01,16,44,16.10
2019,05,01,16,45,16.20
2019,05,01,16,46,16.20
2019,05,01,16,47,16.20
2019,05,01,16,48,16.10
2019,05,01,16,49,16.00
2019,05,01,16,50,15.90
2019,05,01,16,51,15.90
2019,05,01,16,52,15.80
2019,05,01,16,53,15.80
2019,05,01,16,54,15.80
2019,05,01,16,55,15.80
2019,05,01,16,56,15.80
2019,05,01,16,57,15.80
2019,05,01,16,58,15.90
2019,05,01,16,59,15.90
2019,05,01,17,00,16.00
2019,05,01,17,01,16.10
2019,05,01,17,02,16.20
2019,05,01,17,03,16.20
2019,05,01,17,04,16.30
2019,05,01,17,05,16.30
2019,05,01,17,06,16.30
2019,05,01,17,07,16.40
2019,05,01,17,08,16.40
2019,05,01,17,09,16.50
2019,05,01,17,10,16.60
2019,05,01,17,11,16.60
2019,05,01,17,12,16.60
2019,05,01,17,13,16.60
2019,05,01,17,14,16.60
2019,05,01,17,15,16.60
2019,05,01,17,16,16.60
2019,05,01,17,17,16.70
2019,05,01,17,18,16.70
2019,05,01,17,19,16.70
2019,05,01,17,20,16.60
2019,05,01,17,21,16.60
2019,05,01,17,22,16.70
2019,05,01,17,23,16.70
2019,05,01,17,24,16.80
2019,05,01,17,25,16.80
2019,05,01,17,26,16.80
2019,05,01,17,27,16.80
2019,05,01,17,28,16.80
2019,05,01,17,29,16.70
2019,05,01,17,30,16.70
2019,05,01,17,31,16.60
2019,05,01,17,32,16.50
2019,05,01,17,33,16.50
2019,05,01,17,34,16.50
2019,05,01,17,35,16.60
2019,05,01,17,36,16.60
2019,05,01,17,37,16.70
2019,05,01,17,38,16.70
2019,05,01,17,39,16.70